Wind_Speed
26 28 29 30 32 33 35 37 39 41 43 46 48 49 52 54 55 55 57 60 62 63 65 67 69 71 74 74 75 77 79 81 82 82 82 84 85 86 88 92 94 95 96 96 96 96 96 97 98 99 98 97 94 89 81 74 68 60 52 46 43 41 40 38 39 43 47 50 53 55 58 62 66 70 74 77 80 84 87 91 93 96 100 103 105 108
27 28 30 31 33 35 37 38 39 41 44 47 50 52 53 56 58 58 58 61 63 64 66 69 71 72 74 75 76 78 79 81 83 83 83 84 86 87 88 91 93 96 97 98 99 99 98 98 98 99 100 98 97 94 87 78 72 66 59 52 46 42 41 40 39 39 42 46 49 51 54 57 59 63 67 72 75 79 83 87 89 92 95 98 100 102
28 29 31 33 35 37 38 39 40 41 45 48 52 55 56 57 59 61 61 61 64 65 66 70 72 73 75 76 77 78 80 82 84 85 85 85 87 88 89 90 92 95 98 100 102 102 101 101 100 100 100 100 99 97 92 84 76 69 63 57 51 46 42 41 40 39 39 41 44 48 51 52 55 58 62 66 70 73 77 81 85 88 91 93 96 98
29 32 33 34 36 38 40 41 43 45 48 51 54 58 59 60 60 62 63 63 64 66 67 69 72 74 75 77 78 79 80 82 84 86 86 86 87 89 89 90 92 95 98 101 103 104 103 103 103 102 101 100 100 98 95 89 81 74 67 62 56 51 47 43 41 40 38 38 39 44 48 50 51 54 58 61 64 67 71 75 79 83 87 90 93 95
31 33 34 35 37 39 42 44 47 50 52 54 57 59 61 63 63 63 65 65 66 67 68 69 71 74 76 77 79 79 80 82 84 86 87 86 87 89 90 92 94 97 99 102 104 105 105 104 105 105 104 102 101 101 99 94 87 79 72 66 60 54 50 47 44 41 39 37 37 39 43 46 48 51 54 56 59 63 66 69 73 77 82 85 89 92
33 34 35 36 37 40 44 47 50 53 55 58 60 61 63 65 66 67 67 68 68 68 69 70 70 73 75 77 78 79 81 83 84 86 87 87 87 89 91 94 96 98 101 103 105 106 106 106 106 107 107 106 104 103 102 98 90 82 75 69 63 58 53 49 46 43 40 37 36 37 39 42 44 47 50 52 55 59 63 66 69 72 76 79 83 87
35 36 36 37 39 42 46 49 52 55 58 60 61 63 65 67 68 70 71 70 70 69 70 71 71 72 74 75 78 80 81 83 83 85 87 87 88 90 92 95 97 99 101 104 105 106 107 107 108 109 110 109 107 106 104 101 94 86 78 71 66 60 55 52 49 46 42 38 36 36 37 38 40 43 46 48 51 55 59 64 66 69 71 74 77 81
37 37 38 40 42 45 48 51 54 56 59 61 63 65 66 68 70 72 73 73 72 71 71 73 73 74 75 76 78 81 81 83 84 85 87 88 88 90 92 95 98 100 102 104 105 107 108 108 109 110 111 111 109 108 106 102 97 90 81 73 68 62 58 54 51 49 45 40 36 35 35 36 37 39 42 44 47 50 54 59 63 66 69 70 72 76
39 39 41 43 45 47 50 52 55 57 59 62 64 66 67 69 70 72 74 75 75 73 72 73 74 75 77 78 79 81 82 83 85 85 87 88 88 90 92 94 98 101 102 103 105 106 108 108 110 111 112 112 111 109 106 104 101 94 85 78 71 65 60 55 52 50 48 44 39 35 33 33 35 37 38 41 43 47 50 53 57 61 65 68 70 72
42 42 43 45 47 50 52 54 56 58 60 63 65 67 68 69 71 72 74 76 77 75 72 73 75 75 77 79 80 81 82 83 85 86 87 89 88 89 91 93 96 100 102 104 105 106 107 108 110 111 112 112 111 110 107 106 105 100 92 82 74 68 62 57 53 51 49 47 44 39 35 32 32 34 35 38 40 43 46 50 52 55 60 64 66 69
44 44 46 48 49 51 53 56 58 60 62 63 65 67 69 70 71 72 73 75 77 77 73 72 77 79 79 81 81 82 83 84 85 86 87 88 88 88 90 92 95 98 101 103 106 107 107 108 110 112 113 112 111 110 108 107 107 104 98 88 79 72 66 60 55 51 49 48 46 43 39 35 32 31 32 34 37 40 43 46 48 51 54 58 62 65
45 47 48 50 52 54 56 58 60 62 63 65 67 68 69 71 71 71 71 74 77 79 77 74 77 82 83 83 83 82 83 83 84 85 87 88 87 87 89 91 94 97 99 103 106 107 108 109 110 112 113 113 112 110 109 108 107 106 102 94 86 78 71 64 59 53 50 47 46 45 43 39 35 32 30 30 32 36 39 42 45 48 50 53 56 60
47 49 50 53 55 57 58 60 61 63 65 67 69 70 70 70 70 69 69 71 75 80 81 78 78 83 85 84 84 83 83 83 83 84 85 87 87 86 88 91 94 97 99 101 105 107 108 109 110 112 113 113 113 111 110 109 108 106 103 99 91 82 74 68 62 56 52 49 46 45 43 41 38 35 32 30 30 31 34 37 40 43 47 49 52 54
47 50 52 55 57 59 60 62 63 65 67 68 70 70 71 71 71 71 70 71 73 79 83 83 81 83 84 84 84 83 82 82 82 83 84 85 86 85 86 90 93 96 99 101 103 106 107 109 110 112 113 114 113 113 111 110 108 106 104 102 96 87 79 72 66 61 55 51 48 46 44 42 40 37 34 31 30 29 31 33 36 39 42 45 48 50
48 51 54 57 59 61 63 66 67 68 69 70 71 72 73 74 75 76 76 75 75 78 83 85 83 82 84 83 83 83 82 81 81 82 83 84 84 84 86 89 92 95 98 100 103 105 107 109 111 112 113 114 114 113 113 111 109 107 105 104 100 93 84 77 70 65 59 54 49 46 44 43 41 39 37 34 32 30 30 31 32 35 38 41 43 46
51 54 56 59 61 64 67 70 71 72 72 71 72 73 74 75 77 78 79 80 79 79 82 85 83 82 84 84 83 82 81 80 80 80 82 83 84 84 85 88 91 94 97 100 102 105 107 109 112 113 114 114 115 114 114 113 111 109 107 105 103 98 90 81 74 69 63 58 52 48 45 43 42 40 39 36 35 33 31 31 31 32 35 37 39 42
54 57 58 60 64 67 70 72 74 74 74 74 74 74 74 76 77 79 80 82 82 81 83 87 85 81 82 83 81 81 80 79 79 79 81 83 83 83 84 87 90 93 96 99 102 104 107 109 112 113 114 115 115 115 115 114 112 110 109 106 104 101 94 86 78 73 68 62 57 51 47 44 43 41 40 38 36 35 34 32 31 31 32 35 37 40
55 58 60 62 65 68 71 73 75 75 76 77 77 76 76 77 79 81 82 83 84 82 81 86 87 82 81 81 80 79 78 77 78 78 80 82 82 81 83 86 89 93 96 99 102 104 106 109 111 113 114 115 116 116 115 115 114 112 110 108 106 103 98 90 82 76 72 67 61 56 51 47 44 42 41 39 38 36 35 34 31 30 30 32 35 38
56 59 62 64 66 69 72 73 74 75 77 79 80 80 80 80 81 83 85 86 88 85 81 84 88 84 81 81 79 78 77 76 76 77 78 80 80 80 83 86 89 92 96 99 102 104 107 108 111 112 113 114 115 116 116 115 114 113 111 110 107 104 100 95 87 80 75 70 65 60 54 50 46 44 42 40 39 38 37 35 34 32 30 30 32 35
58 60 63 65 67 71 73 73 74 75 77 79 80 81 82 83 83 84 86 88 90 90 85 83 85 83 79 79 77 76 75 74 74 75 77 79 79 80 83 86 89 92 96 99 102 104 107 109 111 112 113 114 115 115 115 116 115 114 113 111 109 106 103 98 92 85 78 72 68 64 58 53 48 45 42 41 40 39 38 37 36 34 32 31 31 32
61 62 65 67 70 73 74 74 74 76 77 79 81 83 84 85 85 85 86 88 90 91 87 83 82 80 77 76 75 73 72 72 72 73 76 77 78 80 83 86 89 93 95 99 102 105 107 109 111 112 112 114 115 115 115 116 116 116 114 112 110 108 105 101 95 88 81 75 71 67 63 57 51 47 43 41 40 39 38 37 36 36 35 34 33 32
63 64 66 69 72 75 75 75 76 77 78 79 82 84 86 87 87 86 86 87 88 88 84 80 79 77 74 72 71 70 70 69 70 72 74 76 77 80 84 86 90 93 96 99 102 104 107 109 111 112 113 114 115 114 115 115 116 116 115 114 112 110 107 103 98 91 85 78 73 70 66 61 56 50 45 42 40 38 38 37 36 35 35 35 34 34
65 67 68 71 74 76 77 76 77 78 79 80 82 85 86 87 88 87 86 84 83 83 81 77 75 75 72 70 69 68 67 67 69 71 73 75 78 81 83 87 90 93 96 99 101 104 107 109 111 112 113 114 114 114 114 115 116 117 116 115 113 111 108 105 100 94 88 81 76 72 68 65 60 54 48 44 40 38 37 37 36 35 34 34 34 34
69 69 70 71 73 76 77 78 79 80 80 81 82 85 86 86 87 86 83 80 79 80 79 75 73 75 73 70 68 67 66 67 68 71 73 75 78 81 83 87 90 93 96 99 102 105 107 109 111 111 112 113 113 113 114 116 117 117 117 117 115 112 109 107 103 97 91 84 78 73 70 67 63 58 52 47 43 39 36 35 35 35 34 33 33 33
72 73 74 74 73 74 76 77 78 80 81 82 83 84 85 86 85 82 78 76 76 78 79 75 72 76 76 72 68 66 65 67 70 72 74 76 78 81 84 88 91 94 97 100 102 105 107 110 111 111 111 112 112 113 115 116 117 118 118 118 116 114 111 108 105 100 94 87 81 76 72 68 66 62 57 51 46 42 38 35 34 34 34 33 32 32
75 76 78 79 78 79 80 80 81 82 82 83 83 84 85 84 82 79 76 76 76 77 79 77 72 73 75 72 68 66 65 66 70 72 73 76 78 81 85 88 92 94 97 100 103 105 108 110 111 111 111 111 111 112 115 117 118 119 120 119 118 116 113 110 106 101 96 90 85 79 74 70 67 65 61 55 50 45 41 37 34 32 33 33 32 32
75 77 79 82 83 84 85 86 86 85 84 84 84 83 83 81 78 77 77 77 78 77 78 78 74 70 69 68 64 63 64 66 68 70 72 75 79 83 86 89 92 95 97 100 103 106 108 110 111 112 112 112 112 113 115 117 118 120 121 121 119 117 114 111 107 103 97 92 87 82 77 72 69 66 63 60 54 49 45 41 37 33 31 32 32 32
74 77 79 83 84 85 85 86 86 86 85 83 82 80 78 77 77 77 78 79 79 78 75 75 74 68 63 63 61 61 63 65 66 69 72 76 80 84 87 90 92 95 98 101 104 107 109 110 110 111 112 113 114 115 116 117 118 120 121 122 121 118 115 112 108 103 99 94 89 85 80 75 71 68 65 62 58 53 48 44 41 38 34 31 30 31
75 77 79 81 84 84 84 85 84 84 83 80 78 76 75 76 78 78 79 79 79 78 74 71 70 65 60 59 61 62 63 64 66 70 73 77 81 84 87 90 93 95 99 102 105 108 109 109 110 111 113 114 116 117 117 118 119 120 121 122 121 119 116 113 109 104 99 95 90 87 83 78 73 70 67 64 60 56 52 47 43 41 38 34 31 29
76 77 77 78 81 82 82 82 81 79 77 76 74 74 74 76 79 79 78 77 76 74 71 65 61 60 59 59 61 63 64 65 67 71 75 78 82 85 87 90 93 96 100 103 106 108 108 109 111 112 114 116 117 118 119 119 120 120 121 122 122 120 117 113 109 104 100 95 91 87 84 81 76 71 68 65 62 58 55 51 46 42 40 37 34 31
76 76 76 75 76 77 77 77 76 74 73 73 73 74 75 76 78 79 76 73 71 68 63 59 55 54 56 59 62 64 66 67 70 73 77 80 83 86 89 92 95 98 101 104 106 107 109 110 111 113 115 117 118 120 120 120 121 121 121 122 122 121 118 114 110 105 100 95 91 87 84 82 79 74 70 67 64 61 57 53 50 46 42 39 37 34
75 74 72 70 70 71 71 72 73 73 73 74 75 75 75 74 75 77 74 69 65 60 56 55 54 54 56 58 61 65 69 72 74 76 80 83 86 89 91 94 97 100 102 104 106 107 109 111 113 115 116 118 119 120 121 121 122 122 122 122 122 121 119 115 110 105 100 95 91 88 85 82 80 76 72 68 66 63 59 55 52 48 45 41 38 36
71 70 69 68 67 69 70 70 73 74 74 74 74 73 71 70 70 72 69 62 58 56 54 54 56 57 58 59 62 67 72 76 78 80 83 85 87 91 94 97 99 101 103 105 107 109 111 113 115 116 117 118 119 120 121 122 122 122 122 123 123 122 119 115 110 104 100 95 91 87 84 82 80 77 74 70 67 64 61 58 54 51 47 44 41 38
68 69 70 70 69 69 70 70 72 74 72 70 69 68 66 64 62 63 62 57 54 54 55 55 57 58 60 62 65 69 74 79 81 83 85 87 90 93 96 98 100 102 104 106 108 110 112 114 116 117 118 119 119 120 121 121 121 122 122 122 122 122 119 114 109 104 99 95 91 87 84 82 80 78 75 71 68 65 63 59 56 53 50 46 43 40
69 71 71 72 71 70 69 68 67 69 69 66 64 62 60 57 53 53 56 55 54 54 55 56 58 60 63 66 69 71 75 80 83 85 87 90 92 94 97 99 101 104 106 108 109 111 113 115 116 118 118 119 120 120 120 121 121 121 121 121 122 122 119 115 109 103 98 94 90 87 84 82 79 78 76 73 70 66 63 61 57 54 51 48 45 42
71 72 72 72 70 67 66 65 62 63 63 60 57 55 52 49 46 46 51 54 54 55 57 59 61 64 67 69 71 73 75 79 84 87 90 92 94 95 98 100 103 105 107 109 111 113 114 116 117 118 119 120 120 121 120 121 121 121 120 120 120 121 119 114 108 102 97 93 89 86 84 81 79 78 76 74 71 67 64 61 59 55 52 49 46 44
71 71 70 68 66 63 61 58 55 54 52 49 47 47 46 45 44 45 48 52 55 57 60 62 64 67 69 71 73 75 75 78 83 88 90 92 94 96 99 102 104 107 109 110 112 114 115 116 118 119 120 120 121 121 120 120 120 120 120 119 119 119 117 113 107 101 95 91 89 86 83 81 79 77 76 74 72 69 65 62 60 57 54 50 47 44
68 66 65 63 60 57 53 49 45 44 44 42 42 42 43 44 45 47 49 53 57 60 63 65 67 68 71 73 75 77 78 79 82 86 89 92 95 97 100 103 105 108 110 112 113 115 116 117 118 119 120 121 121 121 120 120 120 119 118 118 118 117 116 111 106 99 93 90 88 85 82 80 78 77 76 74 72 70 67 63 60 58 56 52 48 45
62 60 58 54 51 48 47 46 44 42 42 42 43 44 45 47 48 49 51 55 58 61 63 66 68 70 72 75 78 81 82 82 83 87 91 94 97 100 102 105 107 109 111 113 115 116 117 118 119 120 121 122 122 121 121 120 119 118 117 116 116 116 114 109 104 98 92 88 86 84 81 79 77 76 75 74 72 71 68 65 62 59 57 54 51 47
52 49 47 45 45 45 45 44 45 45 45 46 48 48 48 50 53 54 55 56 59 62 65 68 70 72 75 78 81 84 87 88 89 91 94 97 100 102 104 107 109 111 113 115 116 118 119 119 120 121 122 122 122 122 121 120 119 117 115 114 114 114 111 107 102 97 90 86 85 83 81 79 76 75 74 73 72 71 69 67 64 60 57 55 53 50
40 41 41 42 44 45 45 44 45 48 49 50 51 52 52 54 57 59 61 62 63 65 68 71 74 76 79 82 84 86 90 93 95 96 98 100 102 104 106 108 110 113 115 116 118 119 120 121 121 122 122 122 122 121 120 119 118 116 114 113 112 112 109 104 99 95 89 85 83 82 80 78 76 73 72 72 71 70 70 68 65 62 59 56 54 52
38 40 42 43 44 45 47 47 47 49 50 52 54 55 56 58 60 62 64 67 68 70 72 75 79 80 82 85 87 90 92 95 98 99 101 102 104 106 108 110 112 115 117 118 119 121 122 122 123 123 122 122 122 121 120 118 117 115 113 111 111 110 106 101 96 92 88 83 82 81 79 77 75 73 71 70 70 69 69 68 66 64 61 58 55 53
41 42 44 46 48 48 50 52 53 52 52 54 57 59 60 61 63 64 66 69 72 74 76 78 82 84 86 87 90 92 94 97 99 101 103 104 107 109 110 112 114 117 119 120 121 122 123 124 123 123 123 122 121 120 119 117 115 114 112 110 109 108 104 98 93 90 86 82 80 79 78 76 74 72 70 69 69 68 68 67 66 65 63 60 56 53
44 46 48 50 52 53 53 56 59 60 58 58 61 63 65 66 67 68 70 72 75 78 80 82 84 87 89 91 92 94 96 98 100 102 104 106 109 111 113 115 116 118 120 122 123 123 124 124 124 124 123 122 120 119 117 116 114 112 111 110 108 105 101 95 91 87 84 81 79 77 76 75 73 71 69 69 68 67 67 67 66 64 63 61 59 55
47 48 50 52 55 57 58 58 61 65 66 64 64 66 68 70 72 74 75 77 79 81 84 86 87 90 92 93 94 96 98 100 102 104 107 109 111 114 115 117 118 120 122 123 124 125 125 124 124 124 122 121 119 117 116 114 113 111 110 108 106 103 97 92 88 85 82 80 78 76 75 73 71 70 68 68 67 66 66 66 66 65 63 62 60 57
48 49 50 52 54 56 60 61 62 67 70 70 70 71 72 73 75 78 79 81 82 84 86 88 90 92 94 96 98 99 100 102 105 107 109 112 114 116 118 119 120 122 123 125 125 125 125 124 124 123 122 120 118 116 114 112 111 110 108 106 103 99 94 89 86 83 81 79 77 75 74 72 70 68 67 67 66 66 65 65 65 65 64 62 61 59
48 49 51 54 55 55 58 61 64 68 73 74 74 76 77 77 77 80 82 83 84 86 88 90 92 95 97 100 102 103 103 106 109 111 112 115 117 119 120 121 122 124 125 126 126 126 125 124 123 122 121 119 116 114 112 111 109 108 106 104 100 95 90 86 84 82 79 77 75 74 73 71 69 67 66 65 65 65 65 64 63 64 64 63 62 60
48 49 51 55 58 59 60 63 65 69 74 78 78 79 79 79 78 80 83 85 87 88 90 92 95 98 101 103 105 106 107 109 112 114 116 118 120 122 123 124 124 125 126 126 127 126 125 124 122 121 119 117 114 112 110 109 108 106 104 100 96 91 86 83 81 80 78 76 74 73 71 70 67 65 64 63 64 64 64 64 63 62 63 63 62 61
52 54 55 57 61 64 66 67 68 68 71 75 78 79 80 81 81 82 84 87 89 91 93 96 99 102 105 106 108 110 110 112 116 118 120 121 123 124 125 126 126 126 127 127 127 126 125 123 121 119 117 114 112 110 108 107 105 103 100 96 91 87 83 81 80 78 77 75 73 71 70 68 66 64 63 62 62 63 64 64 63 62 61 61 61 61
59 60 61 62 64 67 69 70 72 72 72 74 77 79 82 85 87 87 88 90 92 95 97 100 103 105 107 108 110 113 114 116 118 121 122 124 125 126 127 127 127 127 127 127 126 126 125 122 120 117 114 112 110 107 105 104 102 99 95 91 87 83 81 79 78 77 76 74 72 70 69 67 66 64 62 60 59 60 61 63 64 63 61 60 60 60
63 64 65 66 67 69 72 74 76 78 79 80 82 84 87 90 91 91 92 93 95 97 101 105 107 108 109 110 112 115 118 120 122 124 125 126 127 128 128 128 128 127 127 126 125 124 123 120 117 114 111 109 107 105 102 100 98 94 89 85 82 80 78 77 77 76 74 73 71 69 68 66 65 63 61 60 59 58 58 59 61 62 62 61 60 59
Wind_Direction
325 327 327 328 330 333 333 334 337 337 337 338 338 340 340 339 339 340 340 339 339 340 339 340 342 343 342 342 342 342 343 343 344 345 346 346 345 345 348 350 351 352 354 355 356 357 358 360 0 0 0 1 1 360 357 355 350 345 340 334 329 322 314 304 295 288 283 278 273 269 265 262 260 258 257 256 254 252 251 250 249 248 247 246 245 243
324 325 325 326 327 328 330 334 336 336 336 337 338 339 339 338 338 339 339 339 339 339 340 341 342 342 341 341 341 341 343 344 344 345 346 346 346 346 347 349 350 352 354 356 357 358 359 360 1 2 1 1 2 1 359 357 354 349 344 339 334 329 322 314 306 296 288 283 278 274 269 265 262 260 258 257 255 252 251 250 249 248 247 247 247 245
322 322 323 323 324 327 331 333 334 335 335 336 338 338 338 338 337 337 338 338 338 339 341 341 341 341 340 340 340 341 343 344 344 344 345 346 346 346 347 348 350 352 354 356 357 358 359 360 1 2 2 2 3 3 1 358 356 353 348 343 338 334 328 321 314 305 296 288 282 277 272 268 265 262 260 258 256 254 252 251 250 249 248 247 246 246
317 319 320 322 324 328 331 331 332 334 334 336 337 337 336 336 335 336 337 337 337 339 340 341 340 340 340 340 340 341 342 344 344 344 345 346 346 346 346 348 350 352 354 356 357 358 358 359 0 1 2 3 3 4 3 0 357 355 352 347 342 338 333 329 322 314 305 296 287 280 275 272 267 264 262 260 259 257 256 254 252 250 249 247 246 245
317 319 320 322 325 329 330 330 332 333 334 335 335 335 334 334 334 335 335 335 337 338 339 340 339 339 339 339 339 341 342 343 344 344 344 345 346 346 347 349 351 352 354 356 356 357 358 359 0 1 2 3 3 3 4 3 360 357 355 351 345 341 337 333 329 323 314 305 296 286 279 275 272 268 265 262 261 259 258 256 254 252 250 249 247 246
318 319 319 322 325 328 328 329 331 331 333 334 333 333 333 332 333 334 334 335 336 337 337 338 339 338 338 339 339 340 342 342 344 344 344 345 346 347 348 349 351 352 354 355 355 356 357 358 360 1 1 2 3 3 4 4 2 359 356 354 349 344 339 336 333 329 322 314 305 295 285 279 275 272 268 264 261 260 258 257 255 254 252 250 249 248
318 317 319 323 326 327 327 329 330 331 332 332 332 332 331 332 333 333 333 333 334 336 336 336 337 337 337 338 339 340 341 342 343 344 343 344 346 347 348 349 350 352 353 354 354 355 357 358 359 0 1 2 3 3 3 3 3 1 358 356 353 348 343 339 337 334 329 321 313 304 295 286 279 275 271 268 264 260 258 257 256 255 254 252 251 249
317 319 322 325 325 325 327 328 329 331 331 331 331 331 331 332 332 331 331 332 333 335 336 335 336 337 337 339 340 340 341 341 342 343 343 345 346 347 348 349 350 351 353 353 354 355 356 357 359 360 1 1 2 3 3 3 4 3 360 357 355 352 348 343 340 337 334 328 320 312 304 294 286 280 275 271 267 263 259 258 257 256 255 254 252 250
320 323 324 324 324 325 326 327 329 330 330 330 330 329 330 331 331 331 331 331 332 334 335 335 335 337 338 339 340 340 340 341 341 342 344 345 346 347 348 349 350 350 351 352 353 354 355 357 358 359 0 1 1 2 2 2 3 4 2 360 358 356 352 347 343 339 337 333 328 320 313 302 293 286 280 275 271 267 264 260 257 256 256 255 253 251
323 324 324 324 324 325 325 327 328 328 329 329 328 329 330 330 330 330 331 331 332 333 334 335 334 336 338 339 340 340 340 341 341 342 344 345 346 347 347 348 349 350 350 351 352 353 354 356 358 359 359 360 0 1 1 2 3 3 4 2 360 358 355 351 347 343 340 336 333 328 322 312 300 290 285 280 274 270 267 265 261 258 256 255 254 252
323 324 323 324 324 324 324 326 327 327 327 327 327 328 328 329 330 331 331 331 331 331 333 335 335 336 338 339 339 340 340 340 340 342 344 345 345 346 347 347 348 349 350 350 351 352 354 355 357 358 359 359 360 0 1 2 3 3 4 4 2 360 358 355 352 347 343 339 336 333 328 321 311 298 288 283 279 274 271 268 265 262 259 257 255 253
322 323 323 323 323 324 324 325 326 326 326 326 327 327 328 329 330 331 331 331 330 330 332 336 336 336 337 338 339 340 340 340 340 342 343 344 344 344 345 346 347 348 349 350 350 351 353 355 356 357 358 359 359 360 1 2 2 2 3 4 4 2 360 358 355 351 347 343 340 336 331 326 320 309 297 287 281 278 275 272 269 266 264 261 258 255
321 322 322 322 323 324 324 325 325 325 325 326 326 327 328 329 328 329 330 331 331 331 332 335 337 336 336 337 338 339 339 339 340 341 342 343 343 344 344 345 346 347 348 349 350 350 352 354 356 357 358 358 359 359 0 1 2 2 3 4 5 4 1 360 358 355 351 347 343 339 334 329 325 318 309 297 287 281 277 275 272 270 267 264 261 258
320 321 321 321 322 323 323 323 323 324 325 326 326 327 327 327 328 329 330 332 332 332 331 333 335 335 335 336 337 338 339 339 340 340 341 342 343 343 344 344 345 346 347 348 349 349 351 353 355 356 357 358 358 359 360 0 1 1 2 3 4 5 3 1 360 358 355 351 346 342 337 333 329 324 317 308 298 289 283 278 275 272 270 267 265 262
318 319 320 321 322 322 323 323 323 324 325 326 327 327 328 328 330 330 330 332 333 333 331 331 333 334 334 335 336 337 338 338 339 339 340 341 342 343 344 344 344 345 346 347 348 349 350 353 354 356 357 357 358 358 359 359 0 1 2 3 4 4 4 3 1 0 358 354 350 345 341 337 333 329 324 318 310 301 292 286 281 276 273 270 268 265
319 320 320 321 322 322 324 324 325 325 325 326 327 328 328 329 329 329 330 331 332 332 331 329 331 334 333 334 335 336 337 337 338 339 339 340 342 343 343 343 343 345 346 346 347 348 350 352 354 355 356 357 357 358 358 359 360 1 1 2 3 3 4 4 3 2 0 357 353 349 345 341 336 332 328 324 318 311 303 294 288 283 279 275 271 267
319 319 320 321 322 323 325 325 326 325 326 326 327 328 328 328 328 328 329 329 330 331 331 328 330 333 332 332 334 334 335 337 337 338 338 340 342 343 342 343 343 344 345 346 346 348 350 352 353 355 356 356 357 357 358 358 359 0 1 2 3 3 3 4 4 3 1 360 357 353 349 345 340 336 331 327 323 317 310 302 295 289 284 281 277 272
318 319 320 322 323 324 325 325 325 326 326 326 326 327 327 327 328 328 328 328 328 330 331 328 328 331 331 331 332 333 335 336 337 337 338 340 342 342 342 343 343 344 345 345 346 348 350 352 353 354 355 355 356 356 357 358 358 360 0 1 2 2 3 3 4 4 2 1 359 356 352 348 344 340 335 331 327 323 316 309 302 294 289 285 282 278
318 319 320 321 322 323 324 325 325 325 325 325 325 326 326 327 327 327 327 328 327 328 331 329 327 329 331 330 331 333 335 336 337 337 338 340 341 341 342 342 343 344 344 345 346 348 350 352 353 354 354 355 355 356 356 357 358 359 0 0 1 2 2 2 3 4 3 1 360 359 356 352 348 343 339 335 330 326 322 316 309 302 295 289 285 281
318 319 319 320 321 322 323 324 324 324 325 325 324 324 325 325 326 327 327 327 327 328 330 330 327 329 331 331 332 334 335 336 337 337 338 339 340 341 342 343 343 344 344 345 346 348 350 351 352 353 354 354 354 355 356 356 357 359 359 0 0 1 1 2 2 3 3 2 1 360 358 355 351 347 343 338 334 329 325 321 315 309 304 297 291 286
318 319 319 320 321 321 323 323 323 324 324 324 323 323 324 324 326 327 327 328 327 328 330 331 330 331 333 332 333 335 336 337 336 337 338 339 340 341 342 343 343 343 344 345 346 348 350 351 351 352 353 353 354 354 355 356 357 358 359 360 0 0 1 1 1 2 3 3 2 0 359 357 354 350 346 342 338 333 328 324 320 314 309 304 298 292
318 318 319 319 320 321 322 322 323 323 323 323 322 322 323 324 325 326 328 329 329 329 331 334 333 333 334 334 335 337 337 337 337 337 338 340 341 342 342 342 343 343 344 345 346 348 349 350 351 351 352 353 353 354 355 356 356 357 358 359 360 360 360 0 0 1 1 3 3 1 0 359 356 352 349 346 342 337 332 327 324 319 313 307 302 298
317 318 318 319 320 320 321 322 322 322 322 321 321 322 322 323 325 327 329 330 331 332 334 337 335 334 335 337 338 338 338 337 337 338 339 340 341 342 342 341 342 343 343 345 346 348 349 349 350 350 351 352 353 354 355 356 356 357 358 358 359 359 359 359 359 360 360 1 2 2 1 359 358 355 351 348 345 341 336 331 327 322 317 311 305 301
316 317 317 318 319 320 320 321 321 320 321 321 321 321 322 323 325 328 330 332 334 334 335 336 337 335 336 338 339 339 339 337 338 339 340 341 341 341 341 341 342 342 343 345 346 348 348 349 349 350 351 351 352 353 355 356 356 356 357 358 358 359 359 359 359 359 359 359 1 3 2 0 358 356 353 350 348 345 341 336 331 326 322 317 310 305
316 316 317 317 318 318 318 318 319 319 320 321 321 321 322 324 326 328 330 332 335 334 333 335 337 336 336 338 339 339 339 338 339 340 340 341 341 340 340 341 342 342 343 345 347 347 347 348 348 349 350 351 352 353 355 355 356 356 356 357 358 358 358 358 358 358 358 358 359 1 2 1 359 357 355 352 350 347 344 341 337 331 325 322 317 311
316 317 317 318 318 318 318 319 319 320 321 321 322 322 323 325 327 328 331 332 334 333 332 333 336 336 335 336 337 338 339 340 340 340 340 340 340 339 340 341 341 342 344 345 346 347 347 347 348 349 350 351 352 354 355 355 356 356 356 356 357 357 357 357 357 357 357 357 357 359 1 1 0 358 356 354 351 349 347 345 343 337 331 326 322 317
317 318 318 318 319 319 319 320 320 320 321 321 322 324 325 326 327 329 331 332 332 332 332 331 333 335 334 334 336 338 339 340 340 340 339 339 339 339 340 341 341 342 344 345 346 346 346 347 347 348 349 351 352 354 355 355 355 355 355 356 356 356 356 356 356 356 356 356 356 357 359 1 1 359 357 355 353 351 349 347 345 343 338 331 326 322
317 317 318 318 318 318 318 318 319 319 320 322 324 325 326 327 328 329 330 330 330 330 331 331 332 334 334 333 335 338 339 340 340 339 339 339 339 340 340 340 341 343 344 345 345 345 346 346 347 349 350 351 352 353 354 354 355 355 355 355 355 355 355 355 355 355 355 355 355 356 357 359 0 0 359 356 354 352 350 349 347 345 343 338 331 326
316 317 317 317 317 317 317 317 318 320 322 324 325 327 327 327 328 328 329 328 329 329 331 333 332 333 335 336 337 338 339 340 340 339 339 339 339 340 340 340 342 343 344 345 344 345 345 346 347 349 350 351 351 352 353 354 354 354 354 354 354 354 354 354 354 354 354 354 354 354 355 356 359 0 359 357 356 353 351 350 349 347 344 342 338 332
316 316 316 316 316 316 317 318 320 322 324 325 326 327 328 328 327 326 327 327 329 330 332 334 335 335 337 338 339 339 339 340 340 339 339 339 340 340 340 341 343 344 344 344 344 344 345 346 348 349 349 350 351 351 352 352 353 353 353 353 353 353 353 354 353 353 353 353 353 354 354 354 356 359 360 358 357 355 353 350 349 348 346 344 342 337
315 315 316 317 317 318 320 321 322 324 325 325 326 327 328 327 326 325 326 329 330 332 334 336 338 339 339 340 340 339 338 339 340 339 339 340 340 340 341 342 343 344 343 343 344 344 345 346 347 348 349 349 350 350 351 351 351 352 352 352 352 352 352 353 353 352 352 352 352 353 353 353 354 356 359 359 357 356 354 352 349 349 347 345 344 341
315 316 317 319 320 320 322 323 323 324 325 325 326 327 327 327 326 325 328 331 333 335 338 340 341 342 343 343 341 339 338 339 340 341 341 340 340 341 342 343 343 343 343 343 343 344 345 346 347 348 348 348 349 349 349 350 350 350 350 351 351 351 351 351 352 351 351 352 352 352 352 352 352 354 356 358 358 356 355 353 351 349 348 346 345 343
316 317 319 321 322 323 324 324 323 323 325 325 326 327 326 328 329 327 329 335 338 340 342 344 344 345 345 343 342 340 339 339 340 341 341 340 341 342 343 343 342 342 342 343 343 344 345 346 346 346 347 347 347 348 348 348 349 349 349 349 350 350 350 350 351 350 350 351 351 351 351 351 351 352 354 356 358 357 355 354 352 350 348 347 345 344
318 319 321 322 323 323 323 324 323 323 324 326 326 327 329 331 333 331 332 339 343 343 345 347 346 345 344 342 343 342 341 340 340 341 340 341 342 343 342 342 341 341 342 342 343 344 344 345 345 345 345 346 346 347 347 347 347 348 348 348 348 349 349 349 350 350 349 349 350 350 350 350 350 351 352 354 356 357 356 355 353 351 349 347 345 344
319 320 321 322 323 324 323 324 325 324 325 327 329 331 334 337 339 336 335 341 346 346 347 347 345 343 343 343 343 343 342 340 339 340 341 342 342 342 341 341 341 341 342 342 343 343 343 343 343 344 344 344 345 345 345 346 346 346 347 347 347 347 347 347 348 349 348 348 349 349 349 350 350 350 350 352 354 356 356 355 354 353 350 348 346 344
320 321 321 322 324 325 325 327 328 327 328 333 335 337 340 343 346 344 340 342 346 346 346 345 344 343 343 343 342 343 343 341 340 341 342 342 342 341 341 341 341 341 341 341 342 342 342 342 342 342 343 343 343 344 344 344 345 345 346 346 346 346 346 346 347 348 348 347 347 348 348 349 349 349 349 350 352 354 356 356 354 353 352 349 347 345
321 322 322 323 326 327 329 331 333 334 337 342 342 344 347 349 351 350 345 344 345 344 343 343 343 343 342 342 341 341 342 342 341 341 341 341 341 341 341 340 340 340 340 340 341 341 341 341 341 341 341 341 342 342 343 343 343 344 344 345 345 345 345 345 345 347 347 346 346 347 347 348 348 348 348 349 350 351 354 355 355 353 352 351 348 346
323 324 325 327 330 333 337 341 343 346 350 351 350 352 353 352 351 350 346 343 343 342 342 341 341 341 341 340 340 340 341 342 342 341 340 340 340 340 340 340 339 339 339 339 339 340 340 340 340 340 340 340 340 341 341 342 342 343 343 344 344 344 344 343 344 345 346 345 345 346 347 347 347 347 347 348 348 349 351 354 355 354 352 351 350 348
326 327 330 334 339 345 351 353 352 357 359 355 353 354 352 348 346 345 343 342 341 340 340 340 340 340 340 340 340 340 340 341 342 341 340 340 340 340 339 338 338 338 338 338 338 338 338 338 339 338 338 338 339 339 340 340 341 342 342 343 343 343 343 342 342 344 346 345 344 345 346 346 347 347 346 347 347 348 349 351 354 355 354 352 350 349
332 337 342 349 353 356 359 357 354 355 356 352 349 348 346 343 342 341 340 339 339 339 339 338 338 339 340 340 341 340 340 340 341 341 340 340 339 339 338 337 336 336 336 336 337 337 337 337 337 337 337 337 337 338 338 339 340 340 341 342 342 342 342 342 341 342 344 344 343 343 345 345 346 346 346 346 346 347 347 349 351 354 354 353 351 349
349 353 355 357 357 356 356 354 351 349 349 348 345 343 342 342 341 341 340 338 338 339 339 338 338 339 340 340 341 341 340 340 340 340 339 338 338 337 337 336 335 335 335 335 335 335 335 336 336 336 336 336 336 337 337 338 338 339 340 341 341 341 341 341 340 341 343 343 342 342 344 344 345 346 345 345 346 346 346 347 349 352 353 353 352 350
360 357 354 353 353 352 350 349 348 346 345 345 343 341 341 341 341 341 340 339 339 339 340 339 339 340 340 341 340 340 340 339 338 338 337 337 336 336 335 335 334 334 334 334 334 334 334 334 334 334 335 335 335 336 336 337 337 338 339 340 340 340 340 340 339 340 341 342 342 341 343 344 344 345 345 345 345 345 345 346 347 349 351 353 353 351
356 353 351 349 349 349 348 347 345 344 344 343 342 341 340 340 340 340 340 339 339 340 340 341 340 339 340 340 340 340 339 338 337 336 336 335 335 334 334 334 333 332 332 332 333 332 332 332 333 333 333 334 334 335 335 336 336 337 338 339 339 339 339 339 338 339 340 341 341 341 342 343 344 344 344 344 344 345 345 345 346 347 349 351 352 352
352 351 349 348 348 347 347 346 343 341 342 342 342 340 339 340 340 340 340 341 341 340 341 341 340 339 339 339 339 339 338 336 335 335 335 334 333 333 333 332 332 331 331 331 331 331 331 331 331 332 332 333 333 334 334 335 335 336 337 338 338 338 338 337 337 338 339 340 340 340 341 342 343 344 344 344 344 344 344 344 344 346 347 349 350 352
349 350 348 347 347 345 345 345 343 339 339 341 341 340 340 340 341 341 342 342 342 341 340 340 339 338 337 337 338 337 336 334 334 334 333 333 332 332 331 331 330 330 329 329 330 330 329 330 330 331 331 332 332 333 333 334 334 335 336 336 337 336 336 336 336 337 338 338 339 339 340 341 342 343 343 343 344 344 344 344 343 344 346 347 348 350
348 348 347 345 345 344 342 343 343 340 338 339 341 341 341 342 343 342 341 341 341 340 339 339 338 336 336 336 336 336 335 333 333 333 333 331 331 331 330 329 329 328 328 328 328 328 329 329 329 330 330 331 331 332 333 333 333 334 334 335 335 335 335 335 335 336 336 337 337 337 339 340 341 343 343 343 343 343 344 343 343 343 344 346 347 348
345 346 345 343 342 343 342 342 343 342 339 339 342 342 341 342 343 341 340 339 339 338 338 337 336 335 335 334 334 334 334 332 332 332 331 330 330 329 329 328 328 327 327 327 327 328 328 328 329 329 329 330 331 331 332 332 332 333 333 334 334 334 334 334 334 334 335 336 336 336 337 339 340 342 343 343 343 343 343 343 343 343 343 344 346 346
342 343 343 342 341 342 343 344 345 344 341 339 341 341 339 340 341 340 338 337 337 337 337 336 335 334 334 333 333 333 332 331 331 331 330 329 328 328 327 327 327 326 326 326 327 327 327 328 328 328 329 329 330 330 331 331 331 332 332 333 333 333 333 333 333 333 334 335 335 335 336 337 339 341 342 342 342 343 343 343 343 343 343 343 344 345
342 342 344 344 343 343 344 345 346 346 342 340 339 339 337 338 339 339 337 336 335 336 336 336 335 334 333 332 332 331 331 330 329 329 328 327 327 326 326 326 326 326 326 326 326 326 327 327 327 328 328 328 329 330 330 330 330 331 331 332 331 332 332 332 332 332 332 333 334 334 335 336 338 340 341 342 342 343 342 342 342 342 343 343 343 344
344 344 345 346 345 344 344 344 344 344 343 341 340 338 337 337 338 338 337 336 335 335 335 334 334 332 332 331 330 329 329 328 328 327 326 326 325 325 325 325 325 325 326 325 325 326 326 326 326 327 327 327 328 329 330 330 330 330 331 331 330 331 331 331 331 331 331 332 332 333 334 335 336 338 340 340 342 342 343 342 341 341 342 342 343 343
344 344 344 345 344 343 343 343 342 342 342 342 340 339 337 337 338 337 336 335 334 334 333 332 332 331 330 330 328 327 327 327 326 325 325 325 325 324 325 325 325 325 325 325 325 325 325 325 325 326 326 327 327 328 329 329 329 329 330 330 329 330 330 330 330 330 330 330 331 332 333 334 335 337 338 339 340 342 343 343 342 341 340 341 342 342
Height
10697 10693 10690 10688 10685 10683 10681 10677 10673 10669 10664 10660 10655 10651 10646 10640 10636 10632 10626 10620 10614 10607 10599 10589 10582 10574 10567 10562 10554 10546 10537 10528 10519 10511 10502 10493 10484 10473 10462 10451 10439 10428 10418 10406 10392 10380 10367 10354 10342 10329 10316 10303 10291 10279 10269 10259 10249 10242 10236 10231 10226 10221 10216 10211 10206 10201 10196 10193 10190 10187 10186 10185 10184 10183 10184 10185 10187 10188 10189 10192 10196 10199 10201 10203 10209 10218
10695 10692 10689 10686 10683 10681 10678 10674 10671 10667 10662 10657 10651 10646 10642 10636 10630 10626 10623 10616 10608 10602 10595 10585 10577 10571 10564 10558 10551 10541 10532 10523 10514 10506 10498 10489 10478 10467 10458 10449 10438 10425 10413 10400 10388 10375 10363 10351 10339 10327 10314 10300 10287 10275 10265 10256 10246 10237 10229 10223 10218 10213 10208 10203 10198 10193 10188 10184 10181 10178 10175 10173 10172 10172 10172 10172 10172 10174 10175 10177 10180 10184 10187 10191 10197 10204
10693 10690 10687 10684 10681 10677 10674 10671 10667 10664 10659 10653 10647 10641 10637 10632 10626 10620 10616 10612 10605 10598 10591 10581 10573 10567 10560 10553 10546 10537 10527 10518 10510 10501 10493 10483 10473 10463 10455 10446 10435 10422 10408 10395 10383 10371 10360 10348 10335 10324 10312 10298 10285 10273 10262 10252 10243 10234 10225 10217 10211 10205 10200 10196 10191 10185 10180 10176 10173 10169 10165 10163 10162 10161 10160 10160 10160 10161 10163 10165 10167 10170 10174 10178 10184 10190
10692 10688 10685 10682 10678 10674 10670 10666 10662 10658 10654 10648 10643 10637 10632 10628 10624 10617 10610 10606 10601 10594 10587 10579 10570 10563 10556 10548 10540 10532 10523 10513 10504 10496 10487 10478 10470 10460 10450 10440 10429 10416 10403 10390 10379 10368 10357 10345 10332 10320 10309 10297 10285 10273 10261 10249 10239 10230 10220 10212 10204 10198 10193 10188 10183 10178 10173 10169 10165 10161 10157 10154 10153 10151 10150 10150 10150 10151 10153 10154 10156 10158 10161 10164 10167 10173
10691 10687 10684 10680 10676 10671 10667 10662 10657 10652 10648 10643 10639 10634 10628 10622 10618 10613 10607 10601 10595 10588 10582 10577 10569 10559 10552 10544 10536 10527 10519 10509 10500 10491 10483 10475 10466 10456 10445 10433 10422 10410 10397 10385 10375 10365 10353 10341 10329 10315 10303 10292 10281 10269 10258 10247 10236 10226 10217 10208 10200 10193 10186 10181 10175 10170 10166 10161 10157 10153 10150 10147 10145 10143 10142 10142 10142 10142 10142 10143 10144 10146 10148 10150 10153 10158
10689 10685 10682 10678 10674 10669 10664 10659 10654 10648 10643 10639 10634 10629 10624 10618 10611 10606 10601 10596 10590 10585 10578 10573 10567 10559 10550 10542 10532 10523 10515 10506 10497 10488 10479 10471 10461 10451 10439 10427 10416 10405 10393 10381 10371 10361 10350 10338 10325 10312 10299 10287 10275 10264 10254 10245 10235 10225 10215 10205 10195 10187 10180 10174 10168 10163 10159 10155 10150 10146 10143 10140 10137 10135 10133 10133 10133 10132 10131 10131 10132 10134 10136 10139 10142 10146
10687 10683 10680 10676 10671 10667 10662 10656 10651 10646 10640 10635 10630 10625 10619 10613 10606 10599 10595 10591 10586 10580 10573 10567 10562 10556 10548 10540 10529 10520 10512 10503 10494 10485 10476 10466 10456 10445 10434 10421 10411 10401 10390 10379 10369 10358 10347 10335 10323 10310 10297 10284 10273 10262 10252 10244 10233 10222 10212 10203 10193 10183 10175 10168 10162 10157 10152 10149 10144 10139 10136 10132 10130 10127 10125 10124 10124 10123 10121 10121 10122 10123 10125 10128 10131 10134
10685 10681 10677 10673 10668 10664 10659 10654 10648 10643 10638 10632 10626 10622 10616 10609 10603 10595 10589 10584 10580 10575 10569 10561 10556 10549 10541 10534 10525 10515 10507 10498 10489 10481 10471 10460 10450 10438 10428 10417 10406 10396 10387 10378 10367 10355 10344 10332 10320 10308 10296 10283 10271 10261 10252 10243 10232 10221 10211 10200 10190 10180 10172 10164 10156 10151 10146 10142 10138 10134 10130 10126 10122 10120 10118 10116 10115 10113 10112 10112 10112 10113 10114 10117 10120 10122
10681 10677 10673 10669 10665 10661 10656 10651 10646 10641 10636 10630 10623 10618 10613 10607 10600 10593 10584 10577 10573 10570 10565 10556 10549 10543 10534 10526 10519 10510 10501 10493 10484 10475 10465 10453 10443 10433 10423 10414 10403 10392 10383 10375 10365 10354 10342 10329 10317 10305 10294 10282 10270 10260 10251 10240 10229 10219 10208 10196 10187 10177 10169 10161 10153 10146 10140 10135 10132 10128 10124 10120 10117 10113 10110 10109 10107 10105 10103 10103 10103 10104 10104 10106 10108 10111
10677 10674 10670 10666 10662 10657 10653 10648 10643 10639 10633 10627 10621 10614 10609 10604 10598 10590 10582 10573 10566 10563 10560 10552 10543 10538 10531 10521 10513 10505 10496 10488 10479 10469 10458 10447 10438 10430 10421 10412 10402 10391 10381 10372 10362 10351 10340 10328 10315 10304 10292 10281 10270 10259 10249 10236 10225 10215 10205 10195 10185 10175 10166 10158 10149 10142 10135 10129 10125 10121 10118 10115 10112 10108 10104 10102 10099 10098 10096 10094 10094 10095 10095 10095 10097 10099
10673 10669 10666 10662 10658 10654 10650 10645 10639 10635 10630 10625 10619 10613 10606 10601 10595 10588 10580 10571 10562 10556 10555 10549 10537 10528 10523 10516 10507 10500 10491 10483 10474 10464 10453 10444 10435 10427 10418 10409 10400 10391 10380 10368 10358 10347 10337 10326 10314 10302 10290 10280 10270 10259 10246 10234 10223 10212 10202 10192 10182 10172 10163 10154 10146 10139 10132 10125 10119 10115 10111 10108 10106 10103 10099 10096 10093 10091 10089 10087 10086 10086 10085 10086 10087 10088
10669 10666 10662 10658 10654 10650 10645 10641 10636 10630 10625 10620 10615 10610 10603 10597 10591 10586 10579 10570 10559 10549 10546 10543 10534 10521 10513 10508 10501 10494 10487 10478 10469 10459 10450 10442 10433 10423 10415 10406 10397 10388 10378 10367 10355 10344 10333 10323 10312 10300 10289 10278 10268 10257 10245 10232 10221 10211 10200 10189 10178 10168 10159 10151 10143 10136 10129 10122 10116 10110 10106 10102 10099 10096 10093 10090 10087 10085 10082 10080 10079 10078 10077 10077 10077 10078
10666 10662 10658 10654 10649 10646 10641 10637 10632 10627 10622 10616 10610 10605 10599 10594 10589 10584 10578 10570 10558 10544 10536 10534 10530 10519 10509 10502 10495 10489 10482 10474 10465 10457 10449 10440 10430 10421 10412 10403 10394 10385 10376 10365 10354 10343 10332 10322 10311 10300 10288 10277 10265 10254 10242 10230 10220 10210 10199 10186 10176 10167 10158 10149 10140 10132 10125 10118 10112 10107 10102 10098 10093 10090 10087 10084 10081 10079 10076 10074 10072 10070 10069 10068 10068 10069
10664 10659 10654 10650 10646 10641 10637 10633 10629 10624 10618 10612 10606 10600 10594 10589 10583 10577 10573 10568 10559 10545 10531 10526 10524 10517 10507 10499 10492 10484 10477 10470 10462 10455 10446 10438 10429 10420 10410 10399 10391 10382 10372 10362 10352 10341 10331 10320 10309 10298 10286 10275 10263 10251 10239 10229 10219 10208 10195 10183 10173 10164 10155 10146 10137 10129 10122 10115 10109 10103 10098 10093 10089 10084 10081 10078 10075 10072 10069 10067 10065 10063 10061 10060 10060 10060
10661 10657 10652 10647 10642 10637 10632 10627 10622 10617 10612 10607 10600 10594 10586 10579 10572 10566 10560 10558 10554 10545 10531 10522 10520 10515 10505 10497 10489 10481 10474 10466 10459 10451 10443 10435 10427 10417 10407 10397 10388 10378 10368 10358 10349 10338 10327 10316 10305 10294 10283 10272 10260 10249 10237 10227 10217 10205 10192 10180 10169 10160 10152 10143 10135 10127 10119 10112 10106 10100 10094 10088 10084 10079 10075 10071 10068 10065 10062 10060 10058 10056 10054 10053 10052 10051
10656 10652 10647 10642 10636 10631 10626 10619 10614 10609 10605 10600 10595 10588 10580 10573 10566 10560 10553 10548 10545 10542 10531 10519 10516 10511 10500 10492 10485 10477 10470 10462 10455 10448 10439 10432 10423 10412 10404 10395 10385 10375 10365 10355 10346 10335 10324 10312 10301 10291 10279 10268 10257 10246 10236 10225 10213 10201 10189 10178 10168 10158 10149 10141 10132 10124 10116 10110 10103 10096 10090 10084 10079 10075 10070 10066 10062 10059 10056 10053 10051 10049 10047 10045 10044 10042
10651 10647 10643 10637 10631 10625 10620 10613 10607 10602 10596 10592 10587 10582 10576 10569 10562 10556 10550 10544 10538 10536 10528 10513 10508 10509 10499 10488 10482 10474 10466 10459 10451 10443 10435 10427 10418 10409 10401 10392 10382 10372 10362 10352 10342 10332 10322 10310 10298 10287 10276 10265 10254 10244 10233 10222 10210 10199 10188 10177 10166 10157 10148 10139 10130 10121 10113 10107 10100 10093 10087 10081 10075 10070 10066 10061 10057 10053 10050 10047 10044 10041 10039 10037 10035 10034
10649 10643 10638 10633 10627 10621 10616 10610 10602 10595 10589 10583 10578 10574 10570 10564 10557 10550 10545 10539 10533 10531 10527 10510 10499 10501 10496 10485 10478 10470 10462 10455 10446 10438 10430 10421 10414 10407 10398 10388 10378 10368 10358 10349 10339 10328 10318 10307 10295 10284 10273 10263 10252 10242 10231 10220 10209 10198 10186 10175 10165 10155 10145 10136 10126 10118 10110 10103 10097 10090 10083 10077 10071 10066 10061 10056 10052 10048 10044 10041 10038 10035 10032 10030 10027 10025
10647 10641 10635 10630 10625 10618 10613 10607 10599 10592 10584 10577 10570 10565 10561 10557 10552 10544 10537 10531 10523 10521 10523 10511 10493 10490 10488 10478 10470 10464 10455 10449 10441 10433 10426 10418 10411 10403 10394 10384 10374 10363 10353 10344 10335 10324 10314 10304 10294 10283 10272 10262 10252 10241 10230 10219 10208 10197 10185 10174 10164 10153 10143 10133 10123 10115 10108 10101 10093 10087 10080 10074 10068 10062 10056 10051 10047 10043 10039 10035 10032 10029 10026 10023 10021 10018
10642 10638 10632 10626 10621 10614 10609 10604 10596 10589 10582 10574 10566 10560 10555 10551 10547 10541 10532 10523 10514 10507 10510 10506 10490 10483 10480 10471 10464 10457 10449 10442 10435 10429 10422 10414 10407 10398 10389 10379 10368 10359 10350 10340 10331 10321 10311 10300 10290 10281 10271 10261 10250 10240 10228 10217 10205 10195 10184 10173 10162 10151 10141 10131 10122 10114 10106 10099 10091 10084 10077 10071 10065 10059 10053 10048 10042 10038 10033 10030 10026 10022 10019 10017 10014 10012
10637 10633 10627 10622 10615 10609 10604 10600 10592 10586 10579 10571 10562 10555 10550 10545 10540 10537 10529 10520 10508 10499 10497 10494 10483 10475 10471 10464 10457 10451 10444 10438 10431 10424 10417 10409 10401 10392 10382 10373 10364 10355 10348 10338 10328 10318 10307 10297 10287 10278 10268 10258 10247 10236 10226 10215 10203 10192 10181 10171 10159 10148 10138 10129 10120 10112 10104 10097 10089 10081 10074 10068 10062 10057 10051 10045 10039 10033 10029 10024 10020 10017 10013 10010 10007 10005
10633 10628 10623 10617 10611 10604 10599 10595 10588 10581 10575 10567 10558 10550 10544 10538 10533 10530 10526 10517 10504 10494 10490 10485 10475 10468 10465 10459 10453 10446 10440 10434 10427 10420 10413 10405 10396 10386 10377 10368 10360 10352 10345 10336 10326 10316 10305 10295 10285 10274 10264 10254 10244 10234 10224 10213 10202 10191 10179 10168 10157 10147 10137 10127 10118 10110 10103 10095 10087 10079 10072 10065 10059 10054 10048 10042 10036 10030 10025 10020 10016 10012 10008 10005 10001 9998
10627 10624 10619 10613 10606 10598 10592 10588 10583 10576 10570 10563 10555 10546 10539 10533 10527 10522 10518 10511 10500 10489 10484 10480 10470 10461 10459 10454 10448 10442 10435 10429 10423 10416 10408 10400 10390 10381 10373 10365 10358 10350 10342 10333 10324 10314 10304 10294 10284 10272 10261 10251 10241 10231 10221 10210 10199 10189 10178 10167 10157 10147 10136 10126 10117 10108 10100 10093 10085 10078 10070 10063 10057 10051 10046 10040 10034 10028 10022 10017 10012 10007 10004 10000 9996 9993
10621 10617 10614 10611 10604 10595 10587 10582 10576 10570 10565 10559 10552 10542 10534 10528 10522 10516 10511 10504 10496 10484 10478 10476 10468 10456 10451 10448 10442 10436 10430 10424 10418 10410 10401 10393 10385 10376 10370 10363 10355 10347 10339 10329 10320 10310 10301 10291 10282 10272 10260 10249 10239 10228 10218 10208 10197 10187 10176 10166 10156 10146 10135 10124 10115 10106 10098 10091 10083 10076 10068 10061 10054 10048 10043 10037 10031 10026 10020 10014 10008 10003 9999 9995 9991 9988
10613 10608 10604 10603 10601 10595 10588 10582 10576 10568 10561 10554 10547 10538 10529 10522 10515 10511 10506 10500 10493 10483 10473 10471 10466 10452 10442 10440 10436 10431 10425 10417 10410 10403 10395 10388 10381 10374 10366 10359 10352 10344 10335 10326 10317 10307 10297 10288 10278 10269 10259 10249 10238 10227 10215 10205 10195 10185 10174 10164 10153 10143 10133 10123 10114 10105 10097 10088 10080 10073 10066 10059 10052 10045 10040 10034 10028 10023 10017 10012 10006 10000 9995 9991 9987 9983
10606 10600 10593 10588 10586 10582 10576 10571 10567 10561 10554 10547 10540 10532 10523 10515 10509 10504 10500 10494 10489 10482 10469 10462 10462 10454 10440 10433 10430 10424 10419 10413 10405 10398 10391 10384 10378 10371 10364 10356 10348 10340 10331 10322 10313 10304 10294 10283 10273 10263 10254 10246 10236 10226 10214 10202 10191 10181 10170 10160 10150 10140 10130 10122 10113 10104 10095 10086 10078 10070 10064 10057 10049 10042 10036 10030 10025 10019 10013 10008 10003 9997 9991 9986 9982 9978
10602 10595 10587 10578 10574 10569 10562 10556 10551 10547 10544 10538 10532 10525 10516 10509 10503 10497 10492 10487 10482 10477 10468 10457 10454 10453 10443 10433 10428 10422 10415 10410 10403 10396 10390 10382 10375 10368 10361 10353 10345 10336 10327 10318 10309 10299 10289 10279 10269 10258 10247 10238 10230 10221 10211 10200 10189 10178 10167 10157 10148 10139 10130 10121 10112 10103 10093 10084 10076 10068 10061 10054 10047 10040 10033 10027 10021 10015 10010 10004 9999 9994 9989 9984 9978 9974
10599 10592 10585 10574 10568 10564 10557 10550 10545 10539 10535 10532 10525 10519 10511 10502 10496 10491 10485 10480 10474 10470 10466 10456 10446 10445 10441 10432 10425 10420 10414 10408 10402 10395 10388 10381 10373 10366 10358 10350 10342 10332 10323 10313 10304 10294 10285 10274 10264 10254 10243 10233 10223 10215 10206 10197 10187 10177 10166 10155 10146 10137 10129 10119 10110 10101 10091 10082 10074 10065 10058 10051 10045 10038 10031 10024 10018 10011 10006 10000 9995 9990 9985 9981 9976 9971
10596 10590 10584 10573 10563 10558 10552 10545 10540 10534 10528 10523 10518 10513 10507 10498 10491 10486 10481 10476 10470 10462 10458 10453 10444 10437 10435 10428 10420 10415 10410 10406 10400 10392 10385 10379 10371 10363 10355 10346 10337 10328 10318 10309 10299 10289 10280 10270 10260 10250 10240 10230 10220 10210 10201 10193 10183 10174 10164 10154 10144 10136 10127 10117 10108 10098 10089 10080 10072 10063 10055 10049 10042 10036 10029 10022 10015 10008 10002 9997 9992 9986 9981 9977 9973 9968
10591 10585 10581 10573 10561 10553 10548 10540 10534 10530 10523 10518 10513 10508 10503 10495 10485 10481 10478 10472 10466 10458 10452 10449 10443 10433 10427 10423 10417 10411 10406 10402 10397 10389 10382 10376 10368 10360 10351 10342 10332 10323 10313 10304 10294 10284 10275 10265 10256 10246 10236 10227 10217 10207 10198 10188 10179 10170 10161 10152 10142 10133 10124 10115 10106 10096 10087 10078 10070 10062 10053 10046 10039 10033 10027 10020 10013 10006 9999 9993 9988 9983 9978 9973 9969 9965
10584 10579 10575 10570 10560 10551 10545 10536 10529 10525 10521 10515 10510 10504 10498 10492 10481 10474 10472 10467 10461 10455 10449 10443 10440 10434 10427 10420 10413 10407 10402 10398 10394 10388 10379 10371 10363 10355 10346 10337 10327 10318 10309 10299 10290 10280 10271 10261 10252 10243 10233 10223 10213 10203 10194 10185 10175 10167 10158 10150 10140 10131 10121 10112 10103 10094 10085 10077 10068 10060 10051 10043 10036 10030 10024 10017 10010 10003 9996 9990 9984 9979 9975 9970 9965 9961
10577 10573 10568 10565 10558 10549 10543 10536 10527 10521 10517 10510 10505 10500 10493 10488 10479 10467 10463 10461 10456 10450 10446 10440 10435 10432 10426 10420 10413 10405 10398 10392 10388 10383 10374 10366 10357 10348 10340 10331 10322 10313 10305 10296 10286 10277 10268 10258 10249 10240 10230 10220 10210 10200 10191 10182 10173 10164 10155 10146 10137 10128 10118 10109 10101 10092 10083 10074 10066 10057 10049 10041 10034 10027 10021 10015 10008 10000 9994 9987 9981 9976 9971 9967 9962 9958
10571 10567 10562 10559 10555 10547 10540 10534 10525 10517 10513 10507 10500 10496 10490 10484 10476 10462 10456 10456 10452 10445 10441 10437 10432 10427 10422 10418 10413 10404 10394 10387 10381 10376 10368 10361 10353 10343 10334 10326 10317 10309 10300 10291 10282 10273 10264 10255 10245 10236 10227 10218 10209 10199 10189 10180 10170 10161 10151 10142 10133 10124 10116 10107 10099 10090 10080 10072 10063 10055 10047 10039 10032 10025 10018 10012 10006 9998 9991 9985 9978 9972 9967 9963 9959 9954
10566 10561 10556 10553 10550 10545 10537 10532 10523 10513 10508 10505 10499 10493 10486 10480 10473 10461 10451 10451 10449 10443 10439 10435 10430 10425 10420 10415 10411 10403 10393 10382 10375 10370 10363 10355 10348 10339 10330 10321 10313 10304 10295 10287 10278 10269 10260 10251 10242 10232 10224 10215 10206 10197 10188 10178 10169 10159 10149 10139 10130 10121 10113 10105 10096 10087 10078 10070 10061 10053 10046 10038 10030 10022 10015 10009 10003 9997 9990 9983 9976 9970 9964 9959 9955 9951
10561 10556 10551 10546 10544 10540 10533 10528 10523 10512 10504 10500 10494 10488 10481 10476 10471 10462 10451 10447 10447 10443 10438 10434 10429 10424 10419 10412 10407 10401 10392 10380 10371 10365 10359 10350 10342 10334 10326 10317 10308 10299 10291 10282 10274 10265 10256 10247 10238 10228 10220 10211 10202 10194 10185 10176 10166 10157 10147 10137 10127 10118 10109 10101 10093 10085 10076 10068 10060 10051 10043 10036 10028 10020 10013 10006 10000 9995 9988 9981 9974 9968 9962 9957 9952 9947
10556 10551 10546 10541 10537 10534 10527 10521 10517 10509 10500 10494 10488 10483 10479 10475 10472 10466 10455 10448 10445 10441 10437 10432 10427 10421 10416 10410 10404 10398 10392 10382 10369 10360 10352 10344 10336 10329 10321 10312 10303 10295 10286 10278 10269 10260 10251 10242 10233 10224 10216 10207 10199 10190 10181 10172 10163 10154 10145 10135 10126 10116 10106 10097 10090 10082 10074 10065 10057 10049 10041 10033 10025 10018 10010 10003 9997 9992 9986 9980 9973 9966 9961 9955 9949 9944
10551 10546 10540 10535 10531 10527 10523 10517 10512 10506 10499 10494 10489 10484 10480 10476 10472 10467 10459 10451 10445 10440 10435 10430 10425 10419 10413 10407 10401 10396 10391 10384 10371 10359 10350 10341 10333 10325 10317 10308 10300 10291 10282 10274 10265 10257 10247 10238 10229 10220 10211 10203 10195 10186 10177 10169 10160 10151 10142 10132 10123 10114 10104 10095 10087 10080 10072 10062 10054 10047 10038 10030 10022 10015 10008 10001 9994 9989 9984 9978 9971 9964 9958 9953 9948 9942
10546 10541 10534 10530 10525 10521 10517 10513 10510 10505 10500 10495 10490 10486 10481 10476 10471 10467 10460 10453 10446 10440 10434 10428 10422 10417 10411 10404 10398 10391 10386 10381 10372 10360 10350 10341 10332 10323 10314 10305 10296 10287 10278 10269 10260 10252 10243 10234 10225 10216 10207 10198 10190 10182 10174 10166 10157 10148 10139 10129 10120 10111 10102 10092 10084 10077 10069 10060 10051 10043 10036 10027 10020 10012 10005 9998 9991 9985 9980 9975 9969 9962 9956 9950 9945 9940
10541 10536 10530 10525 10521 10517 10512 10507 10504 10502 10498 10493 10488 10483 10479 10474 10471 10467 10461 10454 10447 10440 10434 10427 10420 10414 10407 10400 10392 10383 10377 10373 10368 10358 10347 10337 10327 10318 10310 10300 10291 10282 10273 10264 10255 10246 10238 10229 10220 10210 10201 10192 10184 10176 10168 10160 10152 10144 10135 10126 10117 10108 10098 10089 10080 10073 10066 10057 10049 10041 10033 10025 10017 10009 10002 9995 9988 9982 9976 9971 9966 9960 9953 9947 9942 9937
10538 10533 10528 10524 10519 10515 10511 10505 10499 10496 10493 10489 10484 10481 10477 10472 10467 10462 10457 10452 10446 10439 10431 10423 10416 10409 10401 10393 10385 10376 10366 10359 10355 10348 10339 10330 10321 10313 10304 10294 10284 10275 10267 10258 10248 10239 10231 10223 10214 10205 10195 10186 10178 10169 10161 10154 10146 10138 10130 10122 10113 10104 10095 10085 10076 10069 10062 10054 10046 10038 10030 10022 10015 10007 9999 9992 9985 9978 9972 9967 9962 9957 9951 9944 9939 9933
10537 10532 10527 10523 10518 10514 10510 10506 10500 10494 10490 10487 10482 10477 10474 10469 10462 10456 10449 10443 10438 10432 10424 10416 10409 10402 10395 10386 10378 10370 10360 10350 10343 10338 10330 10322 10314 10306 10297 10288 10278 10268 10259 10250 10241 10231 10223 10215 10207 10199 10190 10180 10172 10164 10155 10148 10141 10133 10125 10118 10110 10100 10091 10082 10073 10065 10058 10051 10042 10034 10026 10019 10012 10005 9997 9989 9983 9976 9969 9963 9958 9953 9948 9942 9936 9930
10537 10532 10526 10522 10518 10513 10508 10505 10501 10496 10490 10485 10480 10474 10468 10462 10457 10451 10443 10435 10428 10423 10417 10409 10401 10394 10388 10380 10371 10364 10356 10346 10337 10330 10323 10315 10306 10298 10290 10281 10271 10261 10251 10243 10234 10224 10215 10208 10200 10192 10184 10175 10166 10158 10150 10142 10135 10128 10120 10112 10104 10095 10087 10078 10069 10061 10054 10047 10039 10031 10023 10015 10008 10001 9994 9987 9980 9973 9967 9960 9954 9949 9944 9939 9933 9928
10534 10530 10525 10520 10515 10511 10506 10500 10496 10493 10488 10481 10474 10468 10463 10457 10451 10445 10438 10430 10422 10415 10410 10403 10394 10386 10380 10374 10366 10357 10349 10341 10331 10323 10315 10307 10298 10290 10282 10273 10263 10253 10243 10235 10227 10218 10208 10201 10193 10185 10177 10169 10160 10152 10144 10136 10128 10121 10113 10106 10098 10090 10082 10073 10065 10057 10050 10043 10036 10028 10020 10012 10005 9998 9991 9983 9976 9970 9964 9958 9952 9946 9941 9935 9931 9925
10530 10526 10521 10516 10511 10506 10502 10496 10487 10482 10480 10476 10469 10460 10454 10448 10443 10437 10432 10426 10418 10409 10402 10397 10388 10379 10371 10366 10360 10352 10343 10335 10326 10317 10308 10299 10290 10281 10273 10264 10255 10246 10236 10227 10220 10211 10202 10194 10186 10178 10170 10162 10154 10146 10138 10130 10121 10114 10107 10099 10092 10084 10076 10068 10060 10052 10045 10038 10031 10024 10017 10009 10002 9995 9987 9980 9973 9967 9960 9954 9949 9944 9938 9932 9927 9922
10528 10523 10517 10512 10506 10499 10494 10490 10483 10473 10468 10467 10463 10457 10450 10443 10436 10429 10422 10417 10410 10402 10394 10388 10381 10373 10365 10358 10353 10346 10337 10328 10319 10311 10301 10292 10283 10274 10265 10257 10247 10238 10229 10220 10212 10204 10195 10187 10179 10171 10163 10156 10148 10140 10132 10123 10115 10107 10100 10093 10085 10078 10070 10062 10054 10047 10040 10033 10026 10020 10013 10006 9999 9992 9984 9977 9970 9964 9958 9951 9945 9940 9935 9929 9923 9918
10525 10521 10515 10510 10505 10498 10490 10485 10480 10471 10462 10458 10455 10449 10444 10438 10430 10422 10415 10409 10403 10396 10388 10381 10375 10367 10358 10350 10344 10338 10329 10319 10311 10304 10294 10284 10276 10267 10258 10249 10240 10231 10221 10212 10204 10196 10188 10180 10172 10163 10155 10148 10141 10133 10125 10117 10109 10101 10093 10086 10078 10071 10063 10056 10049 10042 10035 10029 10021 10015 10009 10002 9996 9988 9981 9973 9966 9960 9955 9949 9942 9936 9930 9926 9920 9914
10523 10519 10513 10507 10503 10500 10493 10485 10479 10469 10459 10453 10450 10443 10437 10432 10426 10418 10410 10404 10399 10392 10385 10376 10368 10359 10351 10342 10334 10328 10321 10310 10301 10295 10287 10276 10267 10259 10250 10241 10232 10223 10214 10204 10195 10187 10179 10172 10164 10156 10147 10140 10133 10126 10118 10110 10102 10094 10086 10079 10071 10064 10057 10050 10042 10036 10030 10024 10017 10010 10004 9998 9992 9985 9978 9971 9963 9956 9951 9946 9940 9933 9926 9921 9916 9911
10522 10518 10514 10507 10499 10496 10492 10486 10480 10471 10457 10447 10442 10437 10432 10429 10425 10418 10408 10400 10393 10387 10380 10371 10360 10350 10343 10334 10324 10318 10312 10302 10292 10285 10278 10269 10259 10251 10242 10233 10224 10214 10205 10196 10186 10178 10170 10163 10156 10147 10139 10131 10124 10118 10111 10103 10094 10086 10079 10071 10063 10057 10050 10043 10036 10030 10024 10018 10012 10005 9999 9993 9988 9982 9975 9968 9961 9953 9946 9941 9937 9931 9924 9918 9912 9907
10519 10514 10511 10506 10498 10491 10486 10481 10478 10474 10465 10452 10443 10436 10429 10424 10422 10416 10407 10396 10387 10379 10372 10365 10355 10343 10334 10326 10316 10308 10303 10295 10285 10276 10269 10260 10250 10241 10232 10223 10215 10206 10196 10187 10178 10168 10160 10153 10147 10139 10131 10123 10116 10109 10102 10095 10086 10079 10071 10063 10056 10049 10043 10037 10030 10024 10018 10012 10006 10000 9994 9988 9983 9978 9972 9966 9959 9951 9943 9936 9931 9927 9922 9916 9910 9904
10513 10508 10504 10500 10494 10487 10482 10476 10471 10469 10465 10457 10447 10437 10427 10419 10413 10407 10398 10388 10379 10369 10361 10355 10348 10339 10329 10319 10308 10299 10293 10287 10277 10267 10260 10251 10240 10231 10222 10213 10204 10196 10187 10177 10169 10160 10151 10143 10137 10129 10122 10114 10107 10100 10094 10086 10078 10070 10063 10055 10048 10041 10035 10030 10024 10018 10011 10006 10000 9995 9989 9983 9978 9972 9967 9962 9957 9950 9942 9933 9926 9921 9917 9913 9908 9902
10506 10501 10497 10493 10488 10481 10475 10469 10462 10456 10452 10446 10438 10429 10419 10410 10403 10396 10387 10378 10371 10363 10354 10345 10338 10331 10324 10316 10304 10290 10283 10278 10268 10257 10249 10242 10231 10220 10212 10203 10194 10185 10177 10168 10159 10151 10142 10133 10127 10120 10112 10105 10098 10092 10085 10077 10069 10062 10055 10048 10041 10034 10028 10022 10017 10011 10005 9999 9994 9988 9983 9978 9972 9967 9962 9957 9952 9948 9942 9934 9925 9917 9911 9907 9904 9899